Location: ?
(35.4554°N, 139.3092°E)
Time: 22:23:31
(UTC+00:00)

Cosmos 1943 Rocket - Pass Details

Date: 21 April 2021
Orbit: 812 x 843 km, 71.0° (Epoch: 10 May)

Event Time Altitude Azimuth Distance (km) Brightness Sun altitude
Exits shadow 18:24:27 26° 277° (W) 1,593 3.2 -19.0°
Maximum altitude 18:25:42 29° 300° (WNW) 1,510 3.2 -18.8°
Drops below altitude 10° 18:30:34 10° 359° (N) 2,461 5.0 -18.0°
Sets 18:33:21 0° 11° (N) 3,395 5.9 -17.5°
